Location: Brachbach
(49.1847°N, 9.7240°E)
Time: 06:02:30
(UTC+00:00)

PCSat - Pass Details

Date: 13 March 2026
Orbit: 780 x 790 km, 67.1° (Epoch: 13 April)

Event Time Altitude Azimuth Distance (km) Brightness Sun altitude
Exits shadow 01:34:50 15° 344° (NNW) 2,055 12.0 -36.8°
Drops below altitude 10° 01:37:37 10° 15° (NNE) 2,364 12.7 -36.5°
Sets 01:41:14 0° 39° (NE) 3,296 13.8 -36.1°
